Location: Killam
(52.7910°N, 111.8608°W)
Time: 03:14:44
(UTC+00:00)

Oscar 11 - Pass Details

Date: 18 March 2026
Orbit: 590 x 602 km, 97.8° (Epoch: 13 April)

Event Time Altitude Azimuth Distance (km) Brightness Sun altitude
Rises 10:06:03 0° 25° (NNE) 2,840 11.5 -29.4°
Reaches altitude 10° 10:08:41 10° 41° (NE) 1,932 10.5 -29.1°
Maximum altitude 10:11:53 21° 91° (E) 1,351 9.2 -28.8°
Enters shadow 10:12:52 19° 111° (ESE) 1,415 9.1 -28.7°
